Simultaneous Nadir Overpasses (SNOs) Predictions

Prediction of SNOs between GOES-16 and NPP Satellite Orbit:

Table of predicted SNOs for the next 14.0 days since TLE Epoch: 1/7/2023
Index Date Time (GOES-16) GOES-16 Lat,Lon NPP Lat,Lon Distance(km) Time Diff (sec)
1 01/07/2023 06:39:58 -0.03, -75.19 0.60, -77.97 316.77 80
2 01/08/2023 06:18:34 -0.03, -75.19 -0.43, -73.44 199.92 80
3 01/09/2023 18:40:32 0.03, -75.20 -0.73, -78.75 403.78 80
4 01/10/2023 18:24:28 0.03, -75.21 0.23, -74.21 113.48 80
5 01/12/2023 06:46:17 -0.04, -75.23 0.93, -79.49 485.51 80
6 01/13/2023 06:24:54 -0.04, -75.24 -0.10, -74.96 31.98 80
7 01/15/2023 18:28:08 0.03, -75.27 -0.08, -75.73 52.71 80
8 01/16/2023 18:12:04 0.03, -75.29 0.96, -71.21 465.26 80
9 01/18/2023 06:33:52 -0.02, -75.31 0.26, -76.47 132.73 80
10 01/19/2023 06:12:29 -0.01, -75.32 -0.78, -71.94 385.20 80
11 01/20/2023 18:34:26 -0.01, -75.34 -0.42, -77.24 216.89 80
